Weather in Verkhnecherensky

Russia / Volgograd Oblast     49°13′04″N   42°40′43″E
В апреле 2022 года жителям России запретили посещать сайт meteo.paraplan.net по решению Генеральной прокуратуры. Аудитория сайта уменьшилась в 10 раз. Владельцы сайта не видят смысла в поддержке погодного сервера в таких условиях. Сайт будет закрыт в октябре.
temp.,
°C
wind,
m/s
gust,
m/s
humid.,
%
clouds,
%
prec.,
mm/h
press.,
hPa
HPBL,
m
4 october, tue
tue400:00+12s226296 0.0 101530
03:00+11sse356681 0.0 101674
06:00+11sse3669100 0.0 1016101
09:00+15sse585428 0.0 1016461
12:00+19s564031 0.0 10161391
15:00+17sse675499 0.0 1016718
18:00+15s476962 0.1 1017352
21:00+14sse357699 0.1 1018196
5 october, wed
wed500:00+13s369158 0.0 1018234
03:00+12s3497100 0.1 1019102
06:00+11w3490100 0.0 102084
09:00+14wnw3462100 0.0 1021421
12:00+15wsw5648100 0.0 1022730
15:00+16wsw5741100 0.0 10221247
18:00+13sw36553 0.0 1023104
21:00+13wsw4953100 0.0 1022431
6 october, thu
thu600:00+12sw376084 0.0 1023322
03:00+9wnw36770 0.0 1023163
06:00+7wsw388588 0.0 1024240
09:00+11w586031 0.0 1024702
12:00+14wnw684748 0.0 10241505
15:00+14wnw575535 0.0 10241212
18:00+13w2559100 0.0 1024304
21:00+13wsw376099 0.0 1024288
7 october, fri
fri700:00+11w367011 0.0 1025115
03:00+10w34750 0.0 102458
06:00+9wsw35825 0.0 102485
09:00+14wsw56615 0.0 1024424
12:00+18w56465 0.0 10241042
15:00+19w56425 0.0 10221338
18:00+16wnw3355100 0.0 102340
21:00+14nnw3364100 0.0 102439
8 october, sat
sat800:00+12n23773 0.0 102530
03:00+11nne37891 0.0 1026136
06:00+9ne36930 0.0 1027135
09:00+13ene45710 0.0 1027380
12:00+17e44490 0.0 1026915
15:00+18e44420 0.0 10251250
18:00+15e46544 0.0 1025104
21:00+13ese49645 0.0 1025199